Total_Precipitation_Accumulation
0.08 0.13 0.19 0.20 0.16 0.15 0.14 0.13 0.16 0.21 0.37 0.48 0.58 0.71 0.79 0.83 0.80 0.80 0.78 0.81 0.92 1.04 1.19 1.20 1.12 1.03 1.05 1.29 1.52 1.78 2.08 2.23 2.30 2.42 2.62 2.91 3.17 3.15 3.05 2.96 2.83 3.00 2.98 2.90
0.08 0.12 0.15 0.13 0.13 0.13 0.11 0.11 0.14 0.21 0.36 0.48 0.60 0.67 0.62 0.66 0.68 0.74 0.84 0.91 1.06 1.22 1.35 1.46 1.49 1.46 1.49 1.65 1.95 2.24 2.52 2.66 2.81 2.93 3.07 3.22 3.31 3.37 3.43 3.37 3.29 3.21 3.11 3.15
0.15 0.16 0.18 0.16 0.16 0.15 0.14 0.15 0.18 0.25 0.36 0.51 0.66 0.66 0.74 0.77 0.80 0.87 0.94 1.07 1.21 1.31 1.42 1.56 1.61 1.68 1.87 2.05 2.28 2.50 2.66 2.78 2.90 3.02 3.22 3.39 3.47 3.53 3.40 3.38 3.36 3.26 3.23 3.27
0.23 0.29 0.33 0.23 0.26 0.27 0.30 0.32 0.35 0.38 0.45 0.56 0.69 0.72 0.87 0.96 0.94 0.90 1.01 1.19 1.25 1.34 1.44 1.56 1.70 1.86 2.06 2.21 2.31 2.62 2.83 2.92 2.99 3.05 3.15 3.37 3.60 3.54 3.41 3.41 3.37 3.34 3.26 3.16
0.38 0.37 0.39 0.40 0.35 0.36 0.48 0.60 0.54 0.67 0.76 0.73 0.79 0.88 0.96 0.98 1.16 1.18 1.13 1.21 1.28 1.39 1.47 1.61 1.68 1.75 1.76 1.90 2.12 2.36 2.57 2.75 2.77 2.92 3.11 3.23 3.28 3.32 3.45 3.46 3.27 3.12 3.00 2.99
0.54 0.57 0.57 0.58 0.53 0.42 0.50 0.90 0.86 0.94 1.03 0.99 1.05 1.32 1.25 0.98 1.01 1.18 1.19 1.19 1.31 1.46 1.53 1.52 1.58 1.65 1.73 1.89 2.11 2.31 2.52 2.72 2.89 3.04 3.21 3.26 3.31 3.47 3.56 3.55 3.52 3.49 3.35 3.28
0.61 0.68 0.67 0.58 0.52 0.55 0.95 1.26 1.20 1.28 1.29 1.20 1.25 1.34 1.29 1.10 1.04 1.05 1.10 1.13 1.24 1.43 1.60 1.61 1.60 1.80 2.01 2.16 2.29 2.45 2.58 2.68 2.82 3.01 3.25 3.53 3.73 3.67 3.67 3.66 3.58 3.41 3.28 3.15
0.85 1.06 1.19 0.86 0.80 1.06 1.26 0.99 1.05 1.26 1.48 1.49 1.43 1.35 1.29 1.20 1.15 1.07 1.02 1.09 1.29 1.45 1.60 1.74 1.84 2.01 2.22 2.26 2.32 2.52 2.74 2.84 2.93 3.13 3.21 3.39 3.66 3.67 3.59 3.60 3.50 3.40 3.40 3.38
1.23 1.40 1.27 1.07 1.08 1.03 1.11 1.28 1.34 1.44 1.66 1.71 1.57 1.44 1.47 1.43 1.33 1.24 1.15 1.16 1.30 1.46 1.63 1.73 1.92 2.12 2.28 2.36 2.45 2.58 2.72 2.90 3.11 3.25 3.34 3.46 3.61 3.68 3.66 3.59 3.42 3.28 3.19 3.02
1.43 1.57 1.38 1.23 1.19 1.14 1.20 1.39 1.47 1.45 1.49 1.54 1.53 1.48 1.64 1.70 1.59 1.56 1.52 1.46 1.47 1.55 1.67 1.78 1.84 2.05 2.25 2.39 2.45 2.59 2.69 2.79 2.98 3.15 3.32 3.50 3.50 3.33 3.18 3.03 2.95 2.93 2.78 2.67
1.78 1.94 1.84 1.63 1.47 1.37 1.39 1.36 1.44 1.39 1.41 1.43 1.48 1.51 1.60 1.75 1.79 1.75 1.67 1.58 1.61 1.69 1.81 1.84 1.86 1.93 2.18 2.40 2.49 2.54 2.70 2.78 2.80 2.84 2.95 3.13 3.20 3.13 2.97 2.79 2.65 2.61 2.49 2.51
2.31 2.23 2.30 2.12 1.74 1.54 1.60 1.58 1.53 1.49 1.56 1.60 1.60 1.60 1.64 1.80 1.85 1.83 1.76 1.71 1.72 1.77 1.83 1.85 1.95 2.05 2.15 2.45 2.73 2.81 2.78 2.65 2.59 2.54 2.55 2.64 2.66 2.68 2.80 2.66 2.66 2.52 2.39 2.31
2.06 2.21 2.22 2.01 1.79 1.80 1.78 1.76 1.74 1.79 1.80 1.76 1.83 1.84 1.80 1.82 1.84 1.83 1.82 1.84 1.82 1.84 1.91 1.98 2.09 2.18 2.19 2.30 2.60 2.82 2.75 2.57 2.49 2.45 2.46 2.42 2.39 2.43 2.57 2.63 2.57 2.46 2.41 2.24
1.83 1.99 2.18 2.00 1.93 1.88 1.83 1.89 1.92 2.02 2.06 1.96 1.98 2.01 1.95 1.91 1.87 1.90 1.99 1.88 1.72 1.73 1.83 1.92 2.00 2.14 2.23 2.31 2.44 2.55 2.61 2.69 2.60 2.47 2.50 2.54 2.55 2.52 2.51 2.56 2.54 2.41 2.39 2.33
1.78 1.79 1.94 1.86 1.81 1.88 1.85 1.86 1.97 2.11 2.21 2.18 2.17 2.11 1.98 1.97 1.97 1.92 1.83 1.71 1.67 1.71 1.72 1.77 1.84 1.87 1.97 2.21 2.41 2.49 2.51 2.55 2.60 2.58 2.55 2.63 2.65 2.56 2.48 2.40 2.36 2.26 2.18 2.23
1.79 1.65 1.70 1.94 2.00 2.05 2.15 2.16 2.11 2.08 2.01 2.01 2.01 2.00 2.00 1.99 1.94 1.85 1.72 1.69 1.78 1.83 1.79 1.74 1.75 1.76 1.80 1.98 2.26 2.45 2.48 2.62 2.54 2.53 2.51 2.48 2.52 2.50 2.48 2.49 2.40 2.29 2.19 2.15
1.93 1.82 1.81 1.95 2.03 2.13 2.20 2.12 2.02 1.95 1.92 1.90 1.90 1.85 1.87 1.98 2.00 1.99 1.96 1.84 1.83 1.91 1.90 1.91 1.92 1.86 1.85 2.03 2.23 2.34 2.28 2.39 2.45 2.24 2.24 2.36 2.36 2.38 2.43 2.47 2.44 2.34 2.21 2.17
2.02 1.86 1.90 2.03 2.04 2.13 2.04 1.92 1.85 1.75 1.75 1.84 1.98 2.01 2.01 2.05 2.03 2.10 2.14 1.99 1.82 1.80 1.82 1.88 1.88 1.86 1.87 2.00 2.16 2.30 2.28 2.16 2.13 2.15 2.28 2.36 2.43 2.45 2.44 2.37 2.34 2.32 2.26 2.23
1.90 1.90 1.88 1.87 1.88 1.95 1.89 1.84 1.81 1.82 1.79 1.84 1.99 2.15 2.21 2.19 2.09 1.98 2.03 2.14 2.13 2.04 1.87 1.79 1.88 1.73 1.77 1.96 2.01 2.09 2.15 2.12 2.05 2.09 2.26 2.42 2.47 2.46 2.47 2.41 2.38 2.39 2.33 2.24
1.97 1.99 1.92 1.85 1.88 1.97 2.03 1.92 1.84 1.84 1.80 1.81 1.97 2.16 2.22 2.13 2.04 2.01 2.14 2.21 2.16 1.97 1.72 1.67 1.65 1.66 1.64 1.76 1.86 1.85 1.97 2.07 2.09 2.07 2.15 2.19 2.21 2.22 2.21 2.17 2.17 2.19 2.21 2.25
2.22 2.10 1.99 1.94 1.89 1.88 2.03 2.00 2.00 1.95 1.78 1.76 1.94 2.02 2.07 2.00 1.92 1.98 2.15 2.17 2.01 1.76 1.57 1.63 1.59 1.62 1.51 1.59 1.67 1.63 1.81 1.99 2.12 2.10 2.03 2.04 2.02 1.94 1.93 2.00 2.11 2.21 2.24 2.24
2.31 2.10 1.86 1.74 1.82 1.90 1.92 1.90 1.86 1.89 1.94 2.00 1.99 1.96 2.00 2.03 1.92 1.96 1.96 1.98 1.82 1.77 1.50 1.43 1.47 1.56 1.55 1.50 1.45 1.62 1.76 1.87 1.93 1.92 1.89 1.91 1.97 1.95 1.92 1.97 2.10 2.15 2.16 2.14
2.33 2.14 1.99 1.90 1.90 1.98 2.02 1.97 1.91 1.93 1.97 2.05 2.11 2.12 2.09 2.02 1.90 1.96 2.02 1.82 1.61 1.61 1.47 1.46 1.51 1.52 1.50 1.41 1.47 1.60 1.63 1.66 1.66 1.68 1.70 1.79 1.93 2.01 1.98 1.90 1.84 1.87 1.94 1.95
2.42 2.31 2.18 1.97 1.91 2.03 2.24 2.19 2.07 2.00 1.92 1.94 1.98 2.02 2.02 2.02 1.97 1.87 1.97 2.00 1.80 1.58 1.48 1.53 1.48 1.40 1.44 1.43 1.53 1.59 1.62 1.62 1.64 1.70 1.74 1.83 1.96 2.07 2.05 1.91 1.74 1.66 1.72 1.85
2.43 2.35 2.23 2.10 2.04 2.06 2.16 2.12 2.02 1.90 1.79 1.84 1.79 1.79 1.86 1.95 2.03 2.02 2.02 1.95 1.90 1.75 1.56 1.52 1.50 1.44 1.37 1.45 1.59 1.61 1.58 1.59 1.65 1.75 1.77 1.81 1.85 1.90 1.99 1.93 1.76 1.65 1.58 1.64
2.54 2.37 2.16 2.06 2.06 2.05 2.06 2.05 2.11 2.11 2.04 2.03 1.91 1.79 1.80 1.91 2.00 2.06 2.04 1.92 1.75 1.68 1.57 1.53 1.47 1.46 1.38 1.45 1.51 1.58 1.60 1.59 1.60 1.56 1.50 1.52 1.54 1.51 1.54 1.58 1.60 1.61 1.59 1.54
2.36 2.24 2.14 2.02 1.91 1.89 2.05 2.10 2.11 2.18 2.17 2.06 1.92 1.77 1.78 1.93 2.04 2.02 1.88 1.82 1.73 1.63 1.51 1.37 1.29 1.31 1.37 1.38 1.36 1.38 1.41 1.40 1.40 1.48 1.57 1.63 1.48 1.31 1.27 1.32 1.38 1.44 1.45 1.40